STARLINK-1271, 45217

Orbit data source: Space-Track

STARLINK-1271, 45217 is a payload satellite owned by SpaceX/Seattle (US) in LEO that was launched on Mon, 17 Feb 2020 UTC via an FALCON 9 launch vehicle from the Air Force Eastern Test Range (AFETR). Payload-class satellites include a variety of spacecraft equipped with specific instruments for various scientific and technological missions. These include communications satellites like Starlink; space stations such as the ISS; scientific satellites like the Hubble; Earth observation satellites from companies like Planet Labs, Umbra, and HawkEye 360; GPS; miniature CubeSats for education and research; and military/defense satellites.

Loading next visibility...
Identifier
45217, 2020-012AR
Orbit
LEO
Country
Flag of USUS
Related business
Manufacturer
SpaceX/Seattle
Mission
Operational Commercial Communications
Bus & Motor
STARLINK, Unknown motor
Mass
260 kg wet, ~248 kg dry
Launch date (UTC)
2020-02-17 (6 years ago)
Launch vehicle
FALCON 9
Launch site
Air Force Eastern Test Range (AFETR)
Object type
Payload
Rocket body
Debris
Shape & HBR
Box + 1 Pan, 10.1 m
Radar Cross Section
13.562 m², Large (>1 m²)

Expand to show TLE details & history
Last TLE update: 11 hours ago

TLE from 11 hours ago
0 STARLINK-1271
1 45217U 20012AR  26073.93992386 -.00008346  00000-0 -27006-3 0  9992
2 45217  53.1602 359.5772 0001090  54.0618 306.0484 15.30189018335967
Epoch: 2026-03-14T22:33Z
TLE epoch observation values (Epoch: 2026-03-14T22:33:29.421Z)
Latitude
-0.00001°
Longitude
-151.34929°
Altitude
475.708 km
Speed
7.629 km/s
True Right ascension
23h 58m 18s
True Declination
0° 00' 00"
Sunlit
Object was in daylight at epoch
Visualization orbit readout
Latitude
Unknown
Longitude
Unknown
Altitude
Unknown
Speed
Unknown
Apparent Right ascension
Unknown
Apparent Declination
Unknown
Sunlit
N/A
Visualization observer readout
Local Sidereal Time
13:37:23
Azimuth
Unknown
Elevation
Unknown
Doppler factor
Unknown
Orbital elements
Apogee altitude
476.251 km
Perigee altitude
474.757 km
Semi-major axis
6,853.641 km
Eccentricity
0.00011
Inclination
53.1602°
RAAN
359.5772°
Arg. of periapsis
54.0618°
True anomaly
306.0383°
Mean anomaly
306.0484°
Eccentric anomaly
306.04335°
Mean motion
3.82526 °/min
Orbital period
94.11 mins
BSTAR
-0.00027006
Loading maneuver chart data...
Computing Atmospheric mass density...

Documentation

Showing up to 5 results
|